Location: Camps Bay
(33.9517°S, 18.3844°E)
Time: 22:08:26
(UTC+00:00)

ADEOS II - Pass Details

Date: 18 January 2020
Orbit: 799 x 801 km, 98.5° (Epoch: 17 February)

Event Time Altitude Azimuth Distance (km) Brightness Sun altitude
Exits shadow 00:47:18 49° 219° (SW) 1,030 2.7 -29.3°
Drops below altitude 10° 00:51:17 10° 198° (SSW) 2,404 5.0 -28.9°
Sets 00:53:39 0° 195° (SSW) 3,342 5.9 -28.7°
